{"data":{"norad_id":64440,"intl_designator":"2025-130C","name":"STARLINK-34410","alt_names":[],"object_type":"PAYLOAD","status":"ACTIVE","operator":null,"country":"US","launch_date":"2025-06-18","launch_site_code":"AFETR","launch_vehicle":null,"mission":null,"orbit_class":"UNKNOWN","rcs_meters":null,"size_class":null,"mass_kg":null,"dimensions":null,"purposes":["comms"],"wikipedia_slug":null,"has_3d_model":false,"image_url":null,"decayed_at":null,"tle_current":{"epoch":"2026-09-20T06:46:20.303616Z","epoch_age_seconds":153953,"freshness":"FRESH","line1":"1 64440U 25130C   26263.28217944  .00013505  00000+0  40979-3 0  9990","line2":"2 64440  53.1568 262.7237 0001071  79.8779 280.2344 15.34424291 70525","mean_motion":15.34424291,"eccentricity":0.0001071,"inclination_deg":53.1568,"raan_deg":262.7237,"arg_perigee_deg":79.8779,"mean_anomaly_deg":280.2344,"bstar":0.00040979,"rev_number":7052,"period_min":93.846272406281,"perigee_km":461.89839693104,"apogee_km":463.36368944589,"semimajor_km":6840.7680431885,"source":"CELESTRAK","updated_at":"2026-09-21T09:00:35.352326Z"}}}